Location: Gettysburg
(39.8310°N, 77.2310°W)
Time: 12:15:16
(UTC-04:00)

ATLAS 2AS CENTAUR R/B - Visible Passes

Search period start: 22 September 2014 00:00
Search period end: 02 October 2014 00:00
Orbit: 919 x 1293 km, 63.7° (Epoch: 07 September)

Date Brightness Start Highest point End Pass type
(mag) Time Alt. Az. Time Alt. Az. Time Alt. Az.
22 Sep 3.6 06:08:12 10° SSW 06:15:00 57° ESE 06:22:28 10° NE visible
23 Sep 4.3 05:24:21 10° S 05:30:34 36° ESE 05:37:18 10° NE visible
24 Sep 4.9 04:41:13 10° SSE 04:46:18 22° ESE 04:51:41 10° ENE visible
24 Sep 2.9 06:29:18 10° SW 06:36:23 75° NW 06:44:09 10° NNE visible
25 Sep 5.3 03:59:38 10° ESE 04:02:09 12° E 04:04:44 10° E visible
25 Sep 3.1 05:44:40 10° SSW 05:51:39 74° ESE 05:59:21 10° NE visible
26 Sep 3.7 05:00:30 10° S 05:07:07 47° ESE 05:14:21 10° NE visible
27 Sep 4.4 04:18:03 15° SSE 04:22:45 29° ESE 04:29:02 10° NE visible
27 Sep 3.0 06:06:11 10° SW 06:13:12 60° NW 06:20:54 10° NNE visible
28 Sep 4.9 03:35:38 14° SE 03:38:32 18° ESE 03:43:05 10° ENE visible
28 Sep 2.8 05:23:08 20° SSW 05:28:22 87° WNW 05:36:09 10° NNE visible
29 Sep 3.2 04:40:37 35° S 04:43:44 62° ESE 04:51:17 10° NE visible
29 Sep 3.7 06:28:44 10° WSW 06:35:13 34° NW 06:42:12 10° NNE visible
30 Sep 3.8 03:58:00 36° SE 03:59:15 39° ESE 04:06:11 10° NE visible
30 Sep 3.2 05:45:29 22° WSW 05:50:06 48° NW 05:57:36 10° NNE visible
01 Oct 4.5 03:15:17 24° ESE 03:15:17 24° ESE 03:20:41 10° ENE visible
01 Oct 2.8 05:02:46 45° WSW 05:05:09 70° NW 05:12:55 10° NNE visible
